This is the latest recevied weather packets stored in our database for station/object KQ4JKJ. If no packets are shown the sender has not sent any weather packets the latest 10 day(s).
| Time | Temp. | Humidity | Pressure | Rain* | Wind** | Luminosity | Snow |
|---|---|---|---|---|---|---|---|
| 1777836131 | 25° C | 72% | 1010.6 hPa | 0 mm | - | 310 W/m² | - |
| 1777835828 | 25° C | 72% | 1010.8 hPa | 0 mm | - | 415 W/m² | - |
| 1777835525 | 24.44° C | 72% | 1011 hPa | 0 mm | - | 670 W/m² | - |
| 1777835222 | 24.44° C | 74% | 1010.8 hPa | 0 mm | - | 356 W/m² | - |
| 1777834919 | 24.44° C | 75% | 1011.2 hPa | 0 mm | - | 539 W/m² | - |
| 1777834616 | 23.89° C | 74% | 1011.1 hPa | 0 mm | - | 330 W/m² | - |
| 1777834311 | 23.89° C | 74% | 1011.3 hPa | 0 mm | - | 268 W/m² | - |
| 1777834005 | 23.89° C | 75% | 1011.3 hPa | 0 mm | - | 287 W/m² | - |
| 1777833702 | 25° C | 73% | 1011.5 hPa | 0 mm | - | 265 W/m² | - |
| 1777833393 | 24.44° C | 74% | 1011.8 hPa | 0 mm | - | 387 W/m² | - |
| 1777833091 | 25° C | 73% | 1011.7 hPa | 0 mm | - | 333 W/m² | - |
| 1777832789 | 24.44° C | 73% | 1011.6 hPa | 0 mm | - | 352 W/m² | - |
| 1777832487 | 24.44° C | 75% | 1011.8 hPa | 0 mm | - | 517 W/m² | - |
| 1777832183 | 25° C | 73% | 1011.9 hPa | 0 mm | - | 342 W/m² | - |
| 1777831880 | 24.44° C | 73% | 1011.9 hPa | 0 mm | - | 282 W/m² | - |
| 1777831577 | 24.44° C | 74% | 1011.8 hPa | 0 mm | - | 325 W/m² | - |
| 1777831275 | 25° C | 73% | 1011.6 hPa | 0 mm | - | 368 W/m² | - |
| 1777830971 | 23.89° C | 76% | 1011.7 hPa | 0 mm | - | 470 W/m² | - |
| 1777830669 | 23.89° C | 75% | 1011.7 hPa | 0 mm | - | 345 W/m² | - |
| 1777830365 | 23.89° C | 75% | 1011.9 hPa | 0 mm | - | 301 W/m² | - |
| 1777830062 | 23.89° C | 76% | 1012 hPa | 0 mm | - | 353 W/m² | - |
| 1777829757 | 23.89° C | 75% | 1011.9 hPa | 0 mm | - | 356 W/m² | - |
| 1777829454 | 24.44° C | 74% | 1011.9 hPa | 0 mm | - | 303 W/m² | - |
| 1777829151 | 23.89° C | 76% | 1011.6 hPa | 0 mm | - | 303 W/m² | - |
| 1777828848 | 24.44° C | 75% | 1011.7 hPa | 0 mm | - | 384 W/m² | - |
* Rain latest hour (hover to see other rain measurements)
** Current wind speed in m/s (hover to see current wind gust speed)